Location: Cheb
(50.0670°N, 12.3670°E)
Time: 06:20:58
(UTC+02:00)

ISS - Pass Details

Date: 24 March 2019
Orbit: 408 x 410 km, 51.6° (Epoch: 20 April)

Event Time Altitude Azimuth Distance (km) Brightness Sun altitude
Rises 19:27:15 0° 226° (SW) 2,327 0.5 -10.0°
Reaches altitude 10° 19:29:25 10° 217° (SW) 1,469 -0.7 -10.3°
Maximum altitude 19:32:29 36° 150° (SSE) 667 -3.1 -10.8°
Enters shadow 19:34:33 17° 90° (E) 1,112 -2.2 -11.1°
